TimeCDT,TemperatureF,Dew PointF,Humidity,Sea Level PressureIn,VisibilityMPH,Wind Direction,Wind SpeedMPH,Gust SpeedMPH,PrecipitationIn,Events,Conditions,WindDirDegrees,DateUTC
12:15 AM,45.7,43.0,90,29.95,10.0,SE,3.5,-,N/A,,Clear,140,2012-10-16 05:15:00
12:35 AM,45.0,43.0,93,29.95,10.0,Calm,Calm,-,N/A,,Clear,0,2012-10-16 05:35:00
12:55 AM,44.1,41.5,91,29.95,10.0,Calm,Calm,-,N/A,,Clear,0,2012-10-16 05:55:00
1:15 AM,43.5,41.9,94,29.95,10.0,Calm,Calm,-,N/A,,Clear,0,2012-10-16 06:15:00
1:35 AM,45.0,42.8,92,29.94,10.0,Calm,Calm,-,N/A,,Clear,0,2012-10-16 06:35:00
1:55 AM,46.0,42.8,88,29.94,10.0,Calm,Calm,-,N/A,,Clear,0,2012-10-16 06:55:00
2:15 AM,43.5,41.5,93,29.93,10.0,Calm,Calm,-,N/A,,Clear,0,2012-10-16 07:15:00
2:35 AM,44.2,42.4,93,29.93,10.0,Calm,Calm,-,N/A,,Clear,0,2012-10-16 07:35:00
2:55 AM,44.1,41.5,91,29.91,10.0,Calm,Calm,-,N/A,,Clear,0,2012-10-16 07:55:00
3:15 AM,47.8,43.2,84,29.90,10.0,SE,4.6,-,N/A,,Clear,130,2012-10-16 08:15:00
3:55 AM,45.3,42.8,91,29.89,10.0,SE,3.5,-,N/A,,Clear,130,2012-10-16 08:55:00
4:15 AM,47.1,43.3,87,29.89,10.0,SE,3.5,-,N/A,,Clear,130,2012-10-16 09:15:00
4:35 AM,48.2,43.7,84,29.88,10.0,SE,4.6,-,N/A,,Clear,130,2012-10-16 09:35:00
4:55 AM,48.2,43.9,85,29.88,10.0,SE,5.8,-,N/A,,Clear,140,2012-10-16 09:55:00
5:15 AM,48.2,42.8,82,29.88,10.0,SSE,3.5,-,N/A,,Clear,150,2012-10-16 10:15:00
5:35 AM,48.2,43.9,85,29.87,10.0,ESE,3.5,-,N/A,,Clear,120,2012-10-16 10:35:00
5:55 AM,48.2,43.9,85,29.87,10.0,ESE,4.6,-,N/A,,Clear,120,2012-10-16 10:55:00
6:15 AM,48.2,43.9,85,29.86,10.0,SE,5.8,-,N/A,,Clear,130,2012-10-16 11:15:00
6:35 AM,47.5,43.7,87,29.85,10.0,Calm,Calm,-,N/A,,Clear,0,2012-10-16 11:35:00
6:55 AM,48.2,44.6,87,29.85,10.0,SE,4.6,-,N/A,,Clear,130,2012-10-16 11:55:00
7:15 AM,48.2,43.9,85,29.84,10.0,SE,4.6,-,N/A,,Clear,130,2012-10-16 12:15:00
7:35 AM,48.2,44.1,86,29.84,10.0,Calm,Calm,-,N/A,,Clear,0,2012-10-16 12:35:00
7:55 AM,50.0,44.6,82,29.84,10.0,ESE,4.6,-,N/A,,Clear,120,2012-10-16 12:55:00
8:15 AM,51.1,45.5,81,29.83,10.0,ESE,4.6,-,N/A,,Clear,120,2012-10-16 13:15:00
8:35 AM,53.1,46.2,78,29.83,10.0,SE,6.9,-,N/A,,Clear,140,2012-10-16 13:35:00
8:55 AM,53.2,46.6,78,29.83,10.0,SE,8.1,-,N/A,,Clear,140,2012-10-16 13:55:00
9:15 AM,57.2,47.3,69,29.82,10.0,SE,11.5,-,N/A,,Clear,140,2012-10-16 14:15:00
9:35 AM,59.0,48.0,67,29.82,10.0,SE,11.5,-,N/A,,Clear,140,2012-10-16 14:35:00
9:55 AM,60.8,47.8,62,29.81,10.0,SE,11.5,-,N/A,,Clear,140,2012-10-16 14:55:00
10:15 AM,62.8,48.0,59,29.79,10.0,SE,12.7,20.7,N/A,,Clear,140,2012-10-16 15:15:00
10:35 AM,65.3,49.1,56,29.78,10.0,SE,11.5,21.9,N/A,,Clear,140,2012-10-16 15:35:00
10:55 AM,66.6,49.5,54,29.76,10.0,SE,17.3,23.0,N/A,,Clear,140,2012-10-16 15:55:00
11:15 AM,67.6,49.5,52,29.75,10.0,SE,20.7,26.5,N/A,,Clear,140,2012-10-16 16:15:00
11:35 AM,68.9,50.4,52,29.74,10.0,SE,17.3,27.6,N/A,,Clear,140,2012-10-16 16:35:00
11:55 AM,69.8,50.9,51,29.72,10.0,SSE,15.0,26.5,N/A,,Clear,160,2012-10-16 16:55:00
12:15 PM,70.9,51.8,51,29.70,10.0,SE,15.0,27.6,N/A,,Clear,140,2012-10-16 17:15:00
12:35 PM,72.0,52.0,49,29.69,10.0,SSE,21.9,27.6,N/A,,Clear,150,2012-10-16 17:35:00
12:55 PM,72.7,52.7,49,29.66,10.0,SSE,21.9,27.6,N/A,,Clear,150,2012-10-16 17:55:00
1:15 PM,72.9,52.7,49,29.65,10.0,SE,20.7,29.9,N/A,,Clear,140,2012-10-16 18:15:00
1:35 PM,74.3,53.8,49,29.64,10.0,SSE,18.4,26.5,N/A,,Clear,150,2012-10-16 18:35:00
1:55 PM,74.1,53.8,49,29.62,10.0,SSE,16.1,23.0,N/A,,Clear,150,2012-10-16 18:55:00
2:15 PM,75.7,53.4,46,29.62,10.0,South,16.1,25.3,N/A,,Clear,170,2012-10-16 19:15:00
2:35 PM,76.1,54.1,46,29.60,10.0,SSE,19.6,26.5,N/A,,Clear,160,2012-10-16 19:35:00
2:55 PM,76.3,54.0,46,29.59,10.0,SSE,18.4,26.5,N/A,,Clear,160,2012-10-16 19:55:00
3:15 PM,76.1,53.4,45,29.57,10.0,SSE,23.0,31.1,N/A,,Clear,160,2012-10-16 20:15:00
3:35 PM,75.7,53.8,46,29.57,10.0,South,13.8,26.5,N/A,,Clear,170,2012-10-16 20:35:00
3:55 PM,76.3,54.1,46,29.57,10.0,South,11.5,21.9,N/A,,Clear,180,2012-10-16 20:55:00
4:15 PM,76.1,53.6,45,29.55,10.0,South,18.4,25.3,N/A,,Clear,170,2012-10-16 21:15:00
4:35 PM,75.0,54.3,48,29.55,10.0,SSE,16.1,25.3,N/A,,Clear,160,2012-10-16 21:35:00
4:55 PM,74.7,54.5,49,29.55,10.0,SSE,13.8,26.5,N/A,,Clear,160,2012-10-16 21:55:00
5:15 PM,75.7,55.0,49,29.54,10.0,SSE,11.5,24.2,N/A,,Clear,160,2012-10-16 22:15:00
5:35 PM,75.2,54.0,47,29.54,10.0,SSE,17.3,24.2,N/A,,Clear,160,2012-10-16 22:35:00
5:55 PM,73.9,54.5,51,29.53,10.0,SSE,20.7,27.6,N/A,,Clear,150,2012-10-16 22:55:00
6:15 PM,73.4,54.5,51,29.53,10.0,SSE,15.0,19.6,N/A,,Clear,160,2012-10-16 23:15:00
6:35 PM,72.5,55.0,54,29.54,10.0,SSE,15.0,20.7,N/A,,Clear,160,2012-10-16 23:35:00
6:55 PM,72.5,55.6,55,29.55,10.0,SSE,12.7,19.6,N/A,,Scattered Clouds,160,2012-10-16 23:55:00
7:15 PM,71.2,55.9,58,29.54,10.0,SSE,11.5,19.6,N/A,,Scattered Clouds,160,2012-10-17 00:15:00
7:35 PM,70.7,56.3,60,29.54,10.0,SSE,12.7,19.6,N/A,,Clear,160,2012-10-17 00:35:00
7:55 PM,70.3,56.3,61,29.53,10.0,SSE,13.8,19.6,N/A,,Clear,160,2012-10-17 00:55:00
8:15 PM,71.1,55.9,59,29.53,10.0,South,13.8,23.0,N/A,,Clear,170,2012-10-17 01:15:00
8:35 PM,70.5,55.8,59,29.54,10.0,South,9.2,-,N/A,,Clear,170,2012-10-17 01:35:00
8:55 PM,69.8,55.6,61,29.54,10.0,South,10.4,17.3,N/A,,Clear,170,2012-10-17 01:55:00
9:15 PM,69.3,55.6,62,29.54,10.0,SSE,9.2,-,N/A,,Clear,160,2012-10-17 02:15:00
9:35 PM,68.4,55.4,63,29.54,10.0,South,8.1,-,N/A,,Clear,170,2012-10-17 02:35:00
9:55 PM,68.9,54.5,60,29.55,10.0,South,10.4,-,N/A,,Clear,180,2012-10-17 02:55:00
10:15 PM,69.8,53.8,57,29.55,10.0,South,11.5,16.1,N/A,,Clear,180,2012-10-17 03:15:00
10:35 PM,69.8,53.6,56,29.55,10.0,South,13.8,18.4,N/A,,Clear,170,2012-10-17 03:35:00
10:55 PM,69.3,53.6,57,29.56,10.0,South,10.4,16.1,N/A,,Clear,180,2012-10-17 03:55:00
11:15 PM,68.2,53.6,60,29.56,10.0,South,8.1,-,N/A,,Clear,170,2012-10-17 04:15:00
11:35 PM,68.4,52.7,57,29.55,10.0,South,11.5,-,N/A,,Clear,170,2012-10-17 04:35:00
11:55 PM,68.4,52.0,56,29.56,10.0,South,10.4,16.1,N/A,,Clear,180,2012-10-17 04:55:00